Regional Weather Roundup
Issued by NWS

Home | Current Version | Previous Version | Text Only | Print | Product List | Glossary Off
Versions: 1 2 3 4 5 6 7 8 9 10 11 12 13 14 15 16 17 18 19 20 21 22 23 24 25 26 27 28 29 30 31 32 33 34 35 36 37 38 39 40 41 42 43 44 45 46 47 48 49 50

000
ASUS43 KOAX 181802
RWRNE

WEATHER ROUNDUP FOR NEBRASKA
NATIONAL WEATHER SERVICE OMAHA NE
100 PM CDT SAT APR 18 2015

NOTES: SATELLITE DATA IS BEING USED TO AUGMENT CLOUD COVER ABOVE
       12000 FEET.
       "FAIR" INDICATES FEW OR NO CLOUDS BELOW 12,000 FEET WITH NO
       SIGNIFICANT WEATHER AND/OR OBSTRUCTIONS TO VISIBILITY.

  * THESE STATIONS DO NOT REPORT WEATHER SUCH AS RAIN...SNOW OR FOG.

NEZ001>004-019>022-054>056-181900-
NEBRASKA PANHANDLE

CITY           SKY/WX    TMP DP  RH WIND       PRES   REMARKS
SCOTTSBLUFF    CLOUDY    52  50  93 VRB5      29.92F
6HR MIN TEMP:  43; 6HR MAX TEMP:  52;

ALLIANCE       CLOUDY    51  44  77 S6        29.92S
6HR MIN TEMP:  44; 6HR MAX TEMP:  51;

CHADRON        CLOUDY    48  46  93 NE7       29.93F FOG
6HR MIN TEMP:  46; 6HR MAX TEMP:  48; 6HR PCP:  0.03;

SIDNEY         PTSUNNY   50  43  77 E5        29.92F
6HR MIN TEMP:  37; 6HR MAX TEMP:  52;

$$

NEZ057>060-069>072-079>082-181900-
SOUTHWEST NEBRASKA

CITY           SKY/WX    TMP DP  RH WIND       PRES   REMARKS
NORTH PLATTE   MOSUNNY   63  48  58 VRB5      29.88F
6HR MIN TEMP:  45; 6HR MAX TEMP:  63;

IMPERIAL       PTSUNNY   59  44  57 E7        29.89F
6HR MIN TEMP:  41; 6HR MAX TEMP:  60;

MCCOOK         MOSUNNY   64  48  56 VRB3      29.87F
6HR MIN TEMP:  44; 6HR MAX TEMP:  65;

$$

NEZ005>010-023>029-035>040-094-181900-
NORTH CENTRAL NEBRASKA

CITY           SKY/WX    TMP DP  RH WIND       PRES   REMARKS
VALENTINE      CLOUDY    55  49  80 E3        29.90F
6HR MIN TEMP:  49; 6HR MAX TEMP:  56; 6HR PCP:  0.38;

AINSWORTH      CLOUDY    54  52  94 E7        29.90F
BROKEN BOW     PTSUNNY   63  52  67 VRB3      29.86F
6HR MIN TEMP:  51; 6HR MAX TEMP:  64;

ORD            CLOUDY    63  54  72 S7        29.86F
6HR MIN TEMP:  52; 6HR MAX TEMP:  63;

$$

NEZ041-046>049-061>064-073>077-083>087-181900-
SOUTH CENTRAL NEBRASKA

CITY           SKY/WX    TMP DP  RH WIND       PRES   REMARKS
GRAND ISLAND   CLOUDY    63  55  75 S7        29.87F
6HR MIN TEMP:  54; 6HR MAX TEMP:  63; 6HR PCP:  0.19;

HASTINGS       CLOUDY    63  55  75 VRB5      29.86F
6HR MIN TEMP:  55; 6HR MAX TEMP:  63; 6HR PCP:  0.02;

KEARNEY *      PTSUNNY   63  54  72 CALM      29.87F
YORK           CLOUDY    64  55  72 SE6       29.88F
$$

NEZ011>018-030>034-042>045-181900-
NORTHEAST NEBRASKA

CITY           SKY/WX    TMP DP  RH WIND       PRES   REMARKS
COLUMBUS *     CLOUDY    63  55  77 E5        29.89F
TEKAMAH        LGT RAIN  61  58  90 E14       29.89F
6HR MIN TEMP:  58; 6HR MAX TEMP:  65; 6HR PCP:  0.30;

$$

NEZ050>053-065>068-078-088>093-181900-
SOUTHEAST NEBRASKA

CITY           SKY/WX    TMP DP  RH WIND       PRES   REMARKS
LINCOLN        CLOUDY    63  59  87 E7        29.90R
6HR MIN TEMP:  58; 6HR MAX TEMP:  64; 6HR PCP:  0.62;

OMAHA EPPLEY   LGT RAIN  62  59  90 SE6       29.90S
6HR MIN TEMP:  61; 6HR MAX TEMP:  65; 6HR PCP:  0.51;

FALLS CITY     LGT RAIN  62  60  93 SE5       29.92F FOG
6HR MIN TEMP:  57; 6HR MAX TEMP:  64; 6HR PCP:  0.49;

$$

NEZ044-045-051>053-067-181900-
OMAHA AREA

CITY           SKY/WX    TMP DP  RH WIND       PRES   REMARKS
OMAHA EPPLEY   LGT RAIN  62  59  90 SE6       29.90S
6HR MIN TEMP:  61; 6HR MAX TEMP:  65; 6HR PCP:  0.51;

OFFUTT AFB     LGT RAIN  62  60  93 E7        29.90S
$$



USA.gov is the U.S. government's official web portal to all federal, state and local government web resources and services.